SWR283 FAOR-LSZH

Flight info

Callsign SWR283
Flight time N/A
Altitude 32000
Route VASUR3A VASUR UZ21 ITROL UQ25 RUDAS UT941 IBRIT UM998 VUE/N0501F340 UM998 ENOLI/N0494F360 UM998 CSO UM2 CIRTA/N0480F380 DCT ALG/N0403F140 L42 AJO/N0478F380 A9 TORTU/N0423F180 M858 SRN/N0411F160 M858 CANNE Z651 KELIP
Aircraft B77W/H-SDE1E2E3FGHIJ2J3J4J5M1RWXY/LB1D1

Departure

Time N/A
Airport O.R. Tambo International Airport (FAOR)

Arrival

Time 2026-02-21 06:45
Airport Zürich Airport (LSZH)
Time Latitude Longitude Altitude Speed Heading
2026-02-21 06:04 45.76478 8.99039 34257 ft 406 kts 347°
2026-02-21 06:04 45.82028 8.97520 34258 ft 406 kts 347°
2026-02-21 06:05 45.87573 8.96017 34258 ft 405 kts 347°
2026-02-21 06:05 45.93104 8.94521 34279 ft 405 kts 347°
2026-02-21 06:06 45.98233 8.93130 34278 ft 405 kts 347°
2026-02-21 06:06 46.03473 8.91707 34259 ft 405 kts 347°
2026-02-21 06:07 46.05222 8.91230 34260 ft 404 kts 347°
2026-02-21 06:13 46.09639 8.90028 34261 ft 403 kts 347°
2026-02-21 06:14 46.15124 8.88531 34274 ft 404 kts 347°
2026-02-21 06:14 46.20737 8.87441 34276 ft 405 kts 351°
2026-02-21 06:15 46.26320 8.86636 34280 ft 406 kts 351°
2026-02-21 06:15 46.31936 8.85819 34235 ft 405 kts 351°
2026-02-21 06:16 46.37531 8.84986 33366 ft 413 kts 351°
2026-02-21 06:16 46.40372 8.84557 32463 ft 399 kts 351°
2026-02-21 06:16 46.43104 8.84148 31562 ft 387 kts 351°
2026-02-21 06:17 46.45731 8.83756 30870 ft 373 kts 351°
2026-02-21 06:17 46.48292 8.83370 30198 ft 371 kts 351°
2026-02-21 06:17 46.50897 8.82970 29430 ft 381 kts 351°
2026-02-21 06:17 46.53577 8.82559 28728 ft 393 kts 351°
2026-02-21 06:18 46.56288 8.82150 28004 ft 392 kts 351°
2026-02-21 06:18 46.58962 8.81749 27342 ft 388 kts 351°
2026-02-21 06:18 46.61649 8.81343 26626 ft 386 kts 351°
2026-02-21 06:18 46.64308 8.80944 25973 ft 382 kts 351°
2026-02-21 06:19 46.64878 8.80859 25838 ft 382 kts 351°
2026-02-21 06:23 46.66004 8.80690 25557 ft 381 kts 351°
2026-02-21 06:23 46.67753 8.80425 25112 ft 380 kts 351°
2026-02-21 06:24 46.71229 8.79899 24243 ft 377 kts 351°
2026-02-21 06:24 46.73829 8.79506 23555 ft 375 kts 351°
2026-02-21 06:24 46.76421 8.79115 22821 ft 372 kts 351°
2026-02-21 06:24 46.78981 8.78730 22201 ft 369 kts 351°
2026-02-21 06:25 46.81528 8.78344 21582 ft 365 kts 351°
2026-02-21 06:25 46.83236 8.78084 21177 ft 364 kts 351°
2026-02-21 06:25 46.86558 8.77576 20357 ft 362 kts 351°
2026-02-21 06:25 46.89043 8.77202 19747 ft 358 kts 350°
2026-02-21 06:26 46.91531 8.76822 19172 ft 357 kts 351°
2026-02-21 06:26 46.93998 8.76442 18540 ft 355 kts 350°
2026-02-21 06:26 46.96443 8.76070 17942 ft 352 kts 350°
2026-02-21 06:26 46.98883 8.75682 17294 ft 350 kts 350°
2026-02-21 06:27 47.01286 8.75293 16779 ft 346 kts 350°
2026-02-21 06:27 47.02442 8.75105 16507 ft 345 kts 350°
2026-02-21 06:27 47.04055 8.74843 16133 ft 344 kts 350°
2026-02-21 06:27 47.05657 8.74585 15778 ft 342 kts 350°
2026-02-21 06:28 47.10294 8.73550 14733 ft 338 kts 346°
2026-02-21 06:28 47.12598 8.72922 14182 ft 338 kts 346°
2026-02-21 06:28 47.14903 8.72294 13612 ft 336 kts 346°
2026-02-21 06:28 47.17204 8.71680 13064 ft 334 kts 346°
2026-02-21 06:29 47.19494 8.71075 12550 ft 332 kts 346°
2026-02-21 06:29 47.21763 8.70477 12048 ft 331 kts 345°
2026-02-21 06:29 47.24013 8.69932 11549 ft 326 kts 351°
2026-02-21 06:29 47.26270 8.70338 11336 ft 328 kts 13°
2026-02-21 06:30 47.28238 8.71712 11179 ft 322 kts 28°
2026-02-21 06:30 47.29573 8.73397 11022 ft 311 kts 42°
2026-02-21 06:34 47.30434 8.74852 10967 ft 299 kts 44°
2026-02-21 06:34 47.31653 8.77184 10827 ft 285 kts 57°
2026-02-21 06:35 47.32200 8.79970 10725 ft 283 kts 84°
2026-02-21 06:35 47.32119 8.82942 10673 ft 305 kts 95°
2026-02-21 06:35 47.31872 8.86071 10539 ft 309 kts 96°
2026-02-21 06:35 47.31619 8.89206 10403 ft 309 kts 96°
2026-02-21 06:36 47.31366 8.92379 10099 ft 313 kts 96°
2026-02-21 06:36 47.31130 8.95582 9738 ft 312 kts 92°
2026-02-21 06:36 47.31428 8.98669 9417 ft 302 kts 65°
2026-02-21 06:36 47.32545 9.01187 9079 ft 288 kts 37°
2026-02-21 06:37 47.34142 9.02837 8769 ft 277 kts 19°
2026-02-21 06:37 47.35926 9.03714 8422 ft 264 kts
2026-02-21 06:37 47.37723 9.04052 8152 ft 259 kts 358°
2026-02-21 06:37 47.38879 9.04193 7964 ft 255 kts 352°
2026-02-21 06:38 47.40991 9.03184 7475 ft 237 kts 314°
2026-02-21 06:38 47.41894 9.01208 7030 ft 233 kts 287°
2026-02-21 06:38 47.42326 8.98936 6691 ft 234 kts 283°
2026-02-21 06:38 47.42713 8.96620 6514 ft 228 kts 281°
2026-02-21 06:39 47.42979 8.94359 6388 ft 219 kts 277°
2026-02-21 06:39 47.43107 8.92873 6316 ft 213 kts 276°
2026-02-21 06:39 47.43316 8.90046 6061 ft 206 kts 276°
2026-02-21 06:39 47.43467 8.87953 5847 ft 204 kts 275°
2026-02-21 06:40 47.43612 8.85889 5592 ft 199 kts 275°
2026-02-21 06:40 47.43752 8.83889 5269 ft 191 kts 275°
2026-02-21 06:40 47.43843 8.82622 5138 ft 182 kts 275°
2026-02-21 06:40 47.43929 8.81420 5103 ft 167 kts 275°
2026-02-21 06:41 47.44119 8.78759 4728 ft 148 kts 274°
2026-02-21 06:41 47.44153 8.78270 4643 ft 146 kts 273°
2026-02-21 06:41 47.44396 8.74827 4140 ft 139 kts 273°
2026-02-21 06:42 47.44430 8.74359 4074 ft 136 kts 273°
2026-02-21 06:42 47.44588 8.72146 3740 ft 125 kts 272°
2026-02-21 06:42 47.44675 8.70906 3617 ft 123 kts 272°
2026-02-21 06:42 47.44704 8.70496 3559 ft 125 kts 272°
2026-02-21 06:43 47.44795 8.69208 3330 ft 124 kts 272°
2026-02-21 06:43 47.44915 8.67521 3078 ft 125 kts 271°
2026-02-21 06:43 47.45132 8.64453 2603 ft 133 kts 272°
2026-02-21 06:44 47.45266 8.62579 2296 ft 138 kts 272°
2026-02-21 06:44 47.45369 8.61175 2077 ft 140 kts 274°
2026-02-21 06:44 47.45460 8.59750 1847 ft 140 kts 272°
2026-02-21 06:44 47.45567 8.58346 1654 ft 139 kts 272°
2026-02-21 06:45 47.45670 8.56934 1448 ft 137 kts 273°
2026-02-21 06:45 47.45753 8.55693 1411 ft 100 kts 276°
2026-02-21 06:45 47.45808 8.54940 1400 ft 47 kts 275°
2026-02-21 06:45 47.45838 8.54520 1395 ft 34 kts 276°
2026-02-21 06:46 47.45887 8.54290 1404 ft 18 kts 319°
2026-02-21 06:46 47.45947 8.54298 1403 ft 7 kts 61°
2026-02-21 06:46 47.45951 8.54427 1396 ft 18 kts 96°
2026-02-21 06:46 47.45934 8.54666 1405 ft 29 kts 95°
2026-02-21 06:47 47.45920 8.54940 1400 ft 12 kts 77°
2026-02-21 06:47 47.45979 8.54966 1401 ft 10 kts 341°
2026-02-21 06:47 47.46042 8.54922 1404 ft 10 kts 335°
2026-02-21 06:47 47.46102 8.54880 1404 ft 10 kts 335°
2026-02-21 06:53 47.46130 8.54861 1397 ft 10 kts 335°
2026-02-21 06:53 47.46155 8.54845 1394 ft 10 kts 336°
2026-02-21 07:01 47.46187 8.54824 1401 ft 11 kts 336°
2026-02-21 07:01 47.46234 8.54794 1399 ft 12 kts 336°
2026-02-21 07:01 47.46297 8.54832 1396 ft 12 kts 73°
2026-02-21 07:02 47.46299 8.54874 1398 ft 12 kts 93°
2026-02-21 07:02 47.46282 8.55122 1404 ft 12 kts 96°
2026-02-21 07:02 47.46273 8.55244 1398 ft 12 kts 96°
2026-02-21 07:02 47.46265 8.55356 1409 ft 12 kts 96°
2026-02-21 07:03 47.46255 8.55472 1408 ft 8 kts 111°
2026-02-21 07:03 47.46209 8.55495 1406 ft 3 kts 181°
2026-02-21 07:03 47.46196 8.55493 1410 ft 3 kts 183°
2026-02-21 07:03 47.46184 8.55492 1407 ft 0 kts 184°